Regional Weather Roundup
Issued by NWS

Home | Current Version | Previous Version | Graphics & Text | Print | Product List | Glossary On
Versions: 1 2 3 4 5 6 7 8 9 10 11 12 13 14 15 16 17 18 19 20 21 22 23 24 25 26 27 28 29 30 31 32 33 34 35 36 37 38 39 40 41 42 43 44 45 46 47 48 49 50
000
ASUS43 KLOT 260810
RWRIL

ILLINOIS REGIONAL WEATHER ROUNDUP
NATIONAL WEATHER SERVICE CHICAGO/ROMEOVILLE IL
300 AM CDT SAT JUL 26 2014

NOTE: "FAIR" INDICATES FEW OR NO CLOUDS BELOW 12,000 FEET WITH NO
SIGNIFICANT WEATHER AND/OR OBSTRUCTIONS TO VISIBILITY.

* THESE STATIONS ARE NOT UNDER NWS QUALITY CONTROL. THEY ALSO MAY NOT
  REPORT WEATHER SUCH AS PRECIPITATION OR FOG.

ILZ001-002-007-009-015-016-024-260900-
NORTHWEST ILLINOIS

CITY           SKY/WX    TMP DP  RH WIND       PRES   REMARKS
MOLINE         PTCLDY    67  62  84 E6        29.81F
STERLING*      CLOUDY    66  61  82 SE6       29.86F
SAVANNA*       CLOUDY    68  61  78 E5        29.85F
$$

ILZ003-004-008-010-011-017-018-260900-
NORTH CENTRAL ILLINOIS

CITY           SKY/WX    TMP DP  RH WIND       PRES   REMARKS
ROCKFORD       CLOUDY    68  59  73 S9        29.89F
FREEPORT*      CLOUDY    64  59  86 SE6       29.89F
ROCHELLE*      CLOUDY    66  59  78 S6        29.87F
DE KALB*       CLOUDY    65  59  80 S8        29.89F
PERU*          CLOUDY    68  60  76 SE8       29.87F
$$

ILZ005-006-012>014-019>023-260900-
NORTHEAST ILLINOIS

CITY           SKY/WX    TMP DP  RH WIND       PRES   REMARKS
CHICAGO-OHARE  CLEAR     68  57  68 SW6       29.87F
CHICAGO-MIDWAY CLOUDY    71  60  68 SW9       29.87F
AURORA         CLOUDY    68  59  73 S6        29.89F
LANSING*       CLOUDY    68  58  71 SW8       29.89F
JOLIET*        MOCLDY    68  59  73 S3        29.89F
WAUKEGAN       CLEAR     63  58  83 CALM      29.87F
DUPAGE AIRPORT CLOUDY    67  59  75 S8        29.88F
KANKAKEE*      CLOUDY    68  61  78 S8        29.90F
WHEELING       PTCLDY    70  59  68 S5        29.89F
MORRIS*        CLOUDY    69  61  76 S8        29.89F
ROMEOVILLE*    CLOUDY    68  59  72 S9        29.89S
NORTHERLY ISL    N/A     70  58  65 S5          N/A
$$

LMZ740>746-260900-
SOUTHERN LAKE MICHIGAN

STATION/POSITION SKY/WX   TEMP    WIND        PRES    VSBY  WAVE
                          AIR SEA DIR/SP/G                  HT/PER
                          (F)     (DEG/KT/KT) (MB)    (MI)  (FT/S)
SOUTHERN BUOY              63 61  190/  8/ 10 1011.8F         1
WAUKEGAN HARBOR            67     240/  5/  6   N/A
HARRISON CRIB              69     200/ 13/ 14   N/A
BURNHAM HARBOR             70     220/  5/  9   N/A
CALUMET HARBOR             69     200/  5/  9 1010.7F
MICHIGAN CITY              66     170/  4/  7   N/A
MICHIGAN CITY 6N           66 68  170/  6/  6   N/A           0
ST. JOSEPH                 66 66  140/  8/ 10   N/A           1/ 2
$$

ILZ025>027-034>036-040-047-049-050-058-095>099-260900-
WEST-CENTRAL ILLINOIS

CITY           SKY/WX    TMP DP  RH WIND       PRES   REMARKS
QUINCY         PTCLDY    72  67  84 S7        29.83F
GALESBURG*     PTCLDY    66  63  87 SE8       29.83S
MACOMB*        CLEAR     65  63  92 S7        29.84F
JACKSONVILLE*  PTCLDY    71  65  83 S10       29.87F
PITTSFIELD*    CLEAR     69  65  88 SE5       29.86S
$$

ILZ028>032-037-038-041>044-048-051>054-059>061-260900-
CENTRAL ILLINOIS

CITY           SKY/WX    TMP DP  RH WIND       PRES   REMARKS
PONTIAC        MOCLDY    68  64  88 SE3       29.88F
DECATUR        CLOUDY    69  62  78 S12       29.89F
PEORIA         MOCLDY    70  61  73 S9        29.85F
LACON*         MOCLDY    67  60  79 SE5       29.85F
LINCOLN*       CLOUDY    69  63  79 S12       29.85F
SPRINGFIELD    CLOUDY    71  64  78 S12       29.87F
TAYLORVILLE    CLOUDY    68  63  83 S10       29.89F
$$

ILZ033-039-045-046-055>057-062-063-260900-
EAST-CENTRAL ILLINOIS

CITY           SKY/WX    TMP DP  RH WIND       PRES   REMARKS
CHAMPAIGN      CLOUDY    68  62  81 S10       29.90F
DANVILLE*      CLOUDY    67  61  81 S7        29.89F
RANTOUL*       MOCLDY    68  61  78 S8        29.91S
MATTOON        CLOUDY    67  61  81 S9        29.91F
PARIS*         CLOUDY    67  62  84 S6        29.92F
$$

ILZ079-100>102-260900-
SOUTHWEST ILLINOIS

CITY           SKY/WX    TMP DP  RH WIND       PRES   REMARKS
ALTON          CLOUDY    67  67 100 SE7       29.91S
BELLEVILLE     PTCLDY    66  65  97 E6        29.90F
CAHOKIA*       PTCLDY    68  64  87 SE7       29.90S
SPARTA*        CLEAR     64  63  94 SE6       29.94S
$$

ILZ064>066-069>071-074>076-080>082-084>086-088>090-092>094-260900-
SOUTH-CENTRAL ILLINOIS

CITY           SKY/WX    TMP DP  RH WIND       PRES   REMARKS
CARBONDALE     CLEAR     66  63  90 SE6       29.95S
CAIRO*         CLEAR     70  66  87 S5        29.95F
EFFINGHAM*     CLOUDY    68  59  74 S8        29.93S
MARION         CLEAR     66  64  94 SE5       29.96F
MT. VERNON     CLEAR     64  59  82 S3        29.96S
CENTRALIA*     CLEAR     67  61  83 S8        29.93F
SALEM*         CLEAR     69  64  85 S7        29.93F
METROPOLIS*    CLEAR     63  62  97 CALM      29.96F FOG
$$

ILZ067-068-072-073-078-083-087-091-260900-
SOUTHEAST ILLINOIS

CITY           SKY/WX    TMP DP  RH WIND       PRES   REMARKS
LAWRENCEVILLE  CLOUDY    64  61  90 S8        29.95F
FLORA*         CLEAR     65  62  89 S8        29.94F
FAIRFIELD*     CLEAR     66  64  94 S5        29.95S
HARRISBURG*    CLEAR     62  62 100 CALM      29.97F
ROBINSON*      CLOUDY    67  63  84 S6        29.95F
CARMI*         CLEAR     64  63  94 S6        29.95F
$$

ABBREVIATIONS USED IN REMARKS
   TC - TEMPERATURE IN CELSIUS
  WCI - WIND CHILL INDEX
   HX - HEAT INDEX
  VSB - VISIBILITY
$$



USA.gov is the U.S. government's official web portal to all federal, state and local government web resources and services.